TimeEST,TemperatureF,Dew PointF,Humidity,Sea Level PressureIn,VisibilityMPH,Wind Direction,Wind SpeedMPH,Gust SpeedMPH,PrecipitationIn,Events,Conditions,WindDirDegrees,DateUTC
12:54 AM,36.0,34.0,93,30.20,10.0,North,11.5,-,N/A,,Overcast,350,2012-11-28 05:54:00
1:12 AM,35.6,33.8,93,30.18,10.0,North,8.1,-,N/A,,Overcast,360,2012-11-28 06:12:00
1:54 AM,36.0,33.1,89,30.19,10.0,NNW,8.1,-,N/A,,Overcast,330,2012-11-28 06:54:00
2:20 AM,35.6,33.8,93,30.20,10.0,NNW,11.5,-,N/A,,Overcast,330,2012-11-28 07:20:00
2:54 AM,36.0,33.1,89,30.20,10.0,NNW,10.4,-,N/A,,Overcast,340,2012-11-28 07:54:00
3:03 AM,35.6,33.8,93,30.20,10.0,NNW,8.1,-,N/A,,Overcast,330,2012-11-28 08:03:00
3:31 AM,35.6,33.8,93,30.21,10.0,NNW,10.4,-,N/A,,Overcast,330,2012-11-28 08:31:00
3:54 AM,35.1,32.0,89,30.22,10.0,NW,9.2,-,N/A,,Overcast,320,2012-11-28 08:54:00
4:54 AM,35.1,32.0,89,30.22,10.0,NNW,10.4,-,N/A,,Overcast,330,2012-11-28 09:54:00
5:54 AM,34.0,30.9,89,30.22,10.0,NNW,6.9,-,N/A,,Mostly Cloudy,330,2012-11-28 10:54:00
6:54 AM,33.1,30.0,89,30.23,10.0,NNW,6.9,-,N/A,,Overcast,330,2012-11-28 11:54:00
7:54 AM,35.1,30.9,85,30.26,10.0,NW,9.2,-,N/A,,Overcast,320,2012-11-28 12:54:00
8:54 AM,37.0,30.9,79,30.27,10.0,NW,10.4,-,N/A,,Overcast,320,2012-11-28 13:54:00
9:54 AM,39.9,28.9,65,30.27,10.0,NW,11.5,-,N/A,,Scattered Clouds,310,2012-11-28 14:54:00
10:54 AM,42.1,28.0,58,30.26,10.0,NW,13.8,-,N/A,,Mostly Cloudy,320,2012-11-28 15:54:00
11:54 AM,43.0,25.0,49,30.23,10.0,WNW,10.4,-,N/A,,Mostly Cloudy,300,2012-11-28 16:54:00
12:54 PM,43.0,24.1,47,30.22,10.0,NW,12.7,-,N/A,,Partly Cloudy,310,2012-11-28 17:54:00
1:54 PM,43.0,23.0,45,30.22,10.0,NNW,16.1,-,N/A,,Clear,330,2012-11-28 18:54:00
2:54 PM,42.1,21.9,45,30.22,10.0,NNW,16.1,21.9,N/A,,Clear,330,2012-11-28 19:54:00
3:54 PM,39.0,21.0,49,30.24,10.0,WNW,12.7,-,N/A,,Clear,300,2012-11-28 20:54:00
4:54 PM,35.1,21.9,59,30.26,10.0,WNW,6.9,-,N/A,,Clear,300,2012-11-28 21:54:00
5:54 PM,33.1,21.0,61,30.29,10.0,Calm,Calm,-,N/A,,Clear,0,2012-11-28 22:54:00
6:54 PM,30.0,21.9,72,30.29,10.0,SW,3.5,-,N/A,,Clear,230,2012-11-28 23:54:00
7:54 PM,28.0,19.9,72,30.31,10.0,Calm,Calm,-,N/A,,Clear,0,2012-11-29 00:54:00
8:54 PM,30.9,21.0,67,30.33,10.0,Calm,Calm,-,N/A,,Clear,0,2012-11-29 01:54:00
9:54 PM,30.0,21.9,72,30.34,10.0,Calm,Calm,-,N/A,,Clear,0,2012-11-29 02:54:00
10:54 PM,28.0,21.0,75,30.35,10.0,SW,4.6,-,N/A,,Clear,230,2012-11-29 03:54:00
11:54 PM,28.0,21.0,75,30.35,10.0,SW,3.5,-,N/A,,Clear,220,2012-11-29 04:54:00